Location: Franzen
(48.6167°N, 15.3833°E)
Time: 20:39:22
(UTC+00:00)

Transit 2A - Pass Details

Date: 06 August 2021
Orbit: 594 x 964 km, 66.7° (Epoch: 27 September)

Event Time Altitude Azimuth Distance (km) Brightness Sun altitude
Rises 14:31:15 0° 306° (NW) 3,338 9.7 37.3°
Reaches altitude 10° 14:35:40 10° 273° (W) 2,497 9.8 36.6°
Maximum altitude 14:37:14 11° 257° (WSW) 2,444 10.0 36.4°
Drops below altitude 10° 14:38:51 10° 241° (WSW) 2,554 10.0 36.1°
Sets 14:43:34 0° 209° (SSW) 3,564 10.0 35.4°
